Voltar ao catálogo

SL-8 R/B

AtivoPO
NORAD 12298·ROCKET BODY·🇷🇺 Russia

Lançado Feb 12, 1981 de Plesetsk Cosmodrome

Loading…

Próximas Passagens (próximas 24 horas)

TLE

AtualizadoSource: Space-Track

Época: Sep 14, 2026, 04:05 UTC

1 12298U 81013B   26257.17079135  .00000068  00000-0  53513-4 0  9995
2 12298  82.9534 342.8972 0030154 161.5685 212.7535 13.76941475289501

Acompanhe SL-8 R/B em tempo real com AllMySat

Download on the App Store